Current Version              Previous Version:    01  02  03  04  05  06  07  08  09  10  11  12  13  14  15  16  17  18  19  20  21  22  23  24  25  26  27  28  29  30  
   31  32  33  34  35  36  37  38  39  40  41  42  43  44  45  46  47  48  49  50  51  52  53  54  55  56  57  58  59  60  

[Printable]
169
ASUS44 KFWD 191803
RWRTX
NORTH TEXAS HOURLY WEATHER ROUNDUP
NATIONAL WEATHER SERVICE FORT WORTH TX
100 PM CDT FRI SEP 19 2014

NOTE: "FAIR" INDICATES FEW OR NO CLOUDS BELOW 12,000 FEET WITH NO
SIGNIFICANT WEATHER AND/OR OBSTRUCTIONS TO VISIBILITY.

TXZ118-119-191900-
DALLAS/FORT WORTH METROPLEX

CITY           SKY/WX    TMP DP  RH WIND       PRES   REMARKS
DFW AIRPORT    PTSUNNY   81  69  67 S10       29.98S
6HR MIN TEMP:  68; 6HR MAX TEMP:  82;

DALLAS LOVE    PTSUNNY   82  69  64 SE6       29.98S
6HR MIN TEMP:  69; 6HR MAX TEMP:  82;

FTW MEACHAM    CLOUDY    79  69  71 SE8       29.98S
6HR MIN TEMP:  70; 6HR MAX TEMP:  80;

DAL-EXECUTIVE  PTSUNNY   84  70  62 SE8G17    29.97F
6HR MIN TEMP:  70; 6HR MAX TEMP:  84; 6HR PCP: TRACE;

FTW-ALLIANCE   CLOUDY    81  68  64 SE10      29.98S
6HR MIN TEMP:  64; 6HR MAX TEMP:  81;

FTW-NAS-JRB    CLOUDY    81  68  64 SE9       30.02S
6HR MIN TEMP:  73; 6HR MAX TEMP:  81;

ARLINGTON      CLOUDY    80  69  69 VRB7      29.98F
6HR MIN TEMP:  71; 6HR MAX TEMP:  80; 6HR PCP: TRACE;

GRAND PRAIRIE  PTSUNNY   81  68  65 MISG      29.99F
MESQUITE       PTSUNNY   82  68  61 E7        29.97F
LANCASTER      CLOUDY    83  68  61 E6        29.98F
6HR MIN TEMP:  69; 6HR MAX TEMP:  83;

$$

TXZ091>094-102>105-117-120-121-131>134-191900-
NORTH CENTRAL TEXAS

CITY           SKY/WX    TMP DP  RH WIND       PRES   REMARKS
SHRMAN/DENISON PTSUNNY   82  69  63 E7        30.01S
6HR MIN TEMP:  66; 6HR MAX TEMP:  82;

GAINESVILLE    PTSUNNY   82  68  62 E8        30.01S
6HR MIN TEMP:  66; 6HR MAX TEMP:  82;

BOWIE          CLOUDY    81  68  64 S10       30.00S
6HR MIN TEMP:  66; 6HR MAX TEMP:  82;

BRIDGEPORT     CLOUDY    79  65  61 SE9       30.00F
6HR MIN TEMP:  68; 6HR MAX TEMP:  79;

DECATUR        CLOUDY    78  66  65 SE9       30.00S
6HR MIN TEMP:  66; 6HR MAX TEMP:  79;

DENTON         CLOUDY    80  68  66 SE10      29.98S
6HR MIN TEMP:  66; 6HR MAX TEMP:  80;

MCKINNEY       PTSUNNY   83  67  58 SE10      29.98F
6HR MIN TEMP:  68; 6HR MAX TEMP:  83;

GREENVILLE     PTSUNNY   84  64  51 E8        29.98S
ROCKWALL       CLOUDY    83  70  64 CALM      29.97S
6HR MIN TEMP:  69; 6HR MAX TEMP:  84;

TERRELL        PTSUNNY   85  68  56 SE9       29.97F
6HR MIN TEMP:  70; 6HR MAX TEMP:  85;

WAXAHACHIE     CLOUDY    81  69  66 SE5       29.98F
6HR MIN TEMP:  68; 6HR MAX TEMP:  81;

CLEBURNE       CLOUDY    81  72  74 SE9       29.99F
GRANBURY       CLOUDY    80  68  67 E6        29.99S
6HR MIN TEMP:  70; 6HR MAX TEMP:  80;

$$

TXZ083>090-098>101-113>116-127>130-139>142-154-155-191900-
WESTERN NORTH TEXAS

CITY           SKY/WX    TMP DP  RH WIND       PRES   REMARKS
WICHITA FALLS  MOSUNNY   83  68  60 SE8       29.98S
6HR MIN TEMP:  67; 6HR MAX TEMP:  83;

WF-KICKAPOO    SUNNY     85  65  51 SE8       29.99F
6HR MIN TEMP:  68; 6HR MAX TEMP:  85;

VERNON         MOSUNNY   86  65  50 SE9       29.99S
6HR MIN TEMP:  68; 6HR MAX TEMP:  86;

ABILENE        CLOUDY    78  67  68 S7        30.01F
6HR MIN TEMP:  69; 6HR MAX TEMP:  79;

ABILENE-DYESS  CLOUDY    77  63  61 S8        30.00S
6HR MIN TEMP:  68; 6HR MAX TEMP:  78; 6HR PCP:  0.21;

BRECKENRIDGE   PTSUNNY   83  66  57 S6        29.98F
6HR MIN TEMP:  70; 6HR MAX TEMP:  83;

MINERAL WELLS  CLOUDY    77  66  68 SE8       29.98S
6HR MIN TEMP:  69; 6HR MAX TEMP:  78;

STEPHENVILLE   CLOUDY    76  65  68 CALM      30.02S
6HR MIN TEMP:  71; 6HR MAX TEMP:  77;

COMANCHE       CLOUDY    79  67  67 SE3       29.99F
6HR MIN TEMP:  70; 6HR MAX TEMP:  79; 6HR PCP:  0.01;

BROWNWOOD      CLOUDY    77  70  78 E6        29.99S
COLEMAN        RAIN      74  68  82 CALM      30.00F
6HR MIN TEMP:  70; 6HR MAX TEMP:  74; 6HR PCP:  0.01;

BRADY          CLOUDY    73  73 100 NE6       29.99
$$

TXZ143>147-156>162-174-175-191900-
CENTRAL TEXAS

CITY           SKY/WX    TMP DP  RH WIND       PRES   REMARKS
WACO           MOSUNNY   83  71  67 E5        29.95F
6HR MIN TEMP:  69; 6HR MAX TEMP:  83; 6HR PCP: TRACE;

WACO-TSTC      PTSUNNY   82  72  69 SE6       29.95F
WACO-MCGREGOR  CLOUDY    81  72  74 NE5       29.97S
6HR MIN TEMP:  70; 6HR MAX TEMP:  81;

HILLSBORO      CLOUDY    81  70  70 SE5       29.97F
6HR MIN TEMP:  70; 6HR MAX TEMP:  81;

CORSICANA      CLOUDY    83  69  62 E10       29.97S
6HR MIN TEMP:  73; 6HR MAX TEMP:  83; 6HR PCP: TRACE;

MEXIA          CLOUDY    81  72  74 E8        29.95S
6HR MIN TEMP:  71; 6HR MAX TEMP:  82; 6HR PCP:  0.08;

HEARNE         PTSUNNY   82  73  73 E7        29.94F
6HR MIN TEMP:  73; 6HR MAX TEMP:  82;

CAMERON        CLOUDY    81  73  77 E6        29.94S
6HR MIN TEMP:  73; 6HR MAX TEMP:  81;

TEMPLE         CLOUDY    79  70  73 NE7       29.95F
6HR MIN TEMP:  72; 6HR MAX TEMP:  82;

KILLEEN        CLOUDY    79  72  78 E8        29.98F
                                      6HR PCP: TRACE;

FORT HOOD      CLOUDY    81  73  76 E3        29.97S
6HR MIN TEMP:  74; 6HR MAX TEMP:  81;

HAMILTON       CLOUDY    77  71  79 E7        30.00S
6HR MIN TEMP:  71; 6HR MAX TEMP:  77;

LAMPASAS       CLOUDY    76  73  92 E6        29.97S FOG
6HR MIN TEMP:  72; 6HR MAX TEMP:  76;

$$

TXZ095>097-106>112-122>126-135>138-148>153-164>167-191900-
EAST TEXAS

CITY           SKY/WX    TMP DP  RH WIND       PRES   REMARKS
PARIS          CLOUDY    77  66  69 E7        30.02F
6HR MIN TEMP:  72; 6HR MAX TEMP:  77;

SULPHUR SPRNGS PTSUNNY   83  69  62 NE8       30.01F
6HR MIN TEMP:  68; 6HR MAX TEMP:  83;

MOUNT PLEASANT CLOUDY    79  73  81 E5        30.01F
6HR MIN TEMP:  71; 6HR MAX TEMP:  79;

GILMER         MOSUNNY   81  73  78 E7        30.00F
MINEOLA        PTSUNNY   84  72  65 SE6       29.98F
TYLER          MOSUNNY   84  69  60 SE8       29.97F
6HR MIN TEMP:  69; 6HR MAX TEMP:  85;

LONGVIEW       MOSUNNY   84  71  65 E10       29.96F
6HR MIN TEMP:  67; 6HR MAX TEMP:  86;

MARSHALL       PTSUNNY   86  75  68 NE7       29.99F HX  95
6HR MIN TEMP:  73; 6HR MAX TEMP:  86;

ATHENS         CLOUDY    81  68  65 E7        29.96F
PALESTINE      CLOUDY    81  72  74 E7        29.98S
JACKSONVILLE   PTSUNNY   82  70  66 E5        29.99F
HENDERSON      MOSUNNY   83  70  63 E3        29.97F
6HR MIN TEMP:  66; 6HR MAX TEMP:  85;

NACOGDOCHES    PTSUNNY   84  72  65 E5        29.96F
6HR MIN TEMP:  70; 6HR MAX TEMP:  84;

LUFKIN         MOSUNNY   88  73  61 E10       29.95S HX  95
6HR MIN TEMP:  75; 6HR MAX TEMP:  88;

$$

SUPPLEMENTAL OBSERVATIONS (CENTRAL)

CITY           SKY/WX    TMP DP  RH WIND       PRES   REMARKS
$$

SUPPLEMENTAL OBSERVATIONS (WEST)

CITY           SKY/WX    TMP DP  RH WIND       PRES   REMARKS
$$

SUPPLEMENTAL OBSERVATIONS (EAST)

CITY           SKY/WX    TMP DP  RH WIND       PRES   REMARKS
$$

SUPPLEMENTAL OBSERVATIONS ARE A COLLECTION OF AUTOMATED INSTRUMENTS
THAT ARE MAINTAINED BY A VARIETY OF FEDERAL AND STATE AGENCIES.
CERTAIN ELEMENTS...SUCH AS HUMIDITY VALUES AND SUSTAINED WIND
SPEEDS...MAY BE APPROXIMATED.